Total_Precipitation_Accumulation
3.50 3.49 3.33 3.21 2.99 3.02 3.37 3.63 3.50 3.51 3.35 3.11 2.78 2.56 2.49 2.38 2.32 2.52 2.66 2.74 2.70 2.77 3.08 3.26 3.14 2.91 2.77 2.62 2.44 2.09 1.90 1.87 1.72 1.47 1.35 1.29 1.22 1.21 1.27 1.33 1.31 1.22 1.21
3.87 4.00 3.80 3.63 3.19 3.05 3.11 3.43 3.54 3.79 3.67 3.43 2.78 2.63 2.60 2.58 2.58 2.54 2.69 3.21 3.28 2.90 2.98 3.34 3.58 3.64 3.46 3.17 2.88 2.56 2.34 2.19 1.93 1.65 1.55 1.50 1.37 1.31 1.44 1.51 1.53 1.36 1.26
4.04 4.02 3.78 3.39 3.04 3.01 3.24 3.28 3.32 3.61 3.43 3.30 3.16 3.09 3.02 2.90 2.76 2.70 2.79 3.31 3.32 2.98 2.87 2.98 3.35 3.71 3.85 3.93 3.74 3.54 3.18 2.76 2.42 2.11 1.84 1.61 1.47 1.38 1.38 1.50 1.64 1.56 1.39
3.43 3.53 3.25 2.92 2.94 3.10 3.26 3.46 3.39 3.49 3.49 3.55 3.63 3.54 3.30 3.13 2.72 2.51 2.42 2.59 2.88 2.60 2.81 3.07 3.22 3.38 3.84 4.35 4.57 4.72 4.32 3.60 3.10 2.63 2.14 1.77 1.55 1.38 1.26 1.34 1.55 1.61 1.45
2.71 2.94 2.95 2.94 2.83 2.99 3.07 2.85 3.27 3.56 3.60 3.62 3.34 3.40 2.98 2.86 2.66 2.34 2.29 2.27 2.45 2.62 2.68 2.76 3.01 3.10 3.60 4.41 5.07 5.62 5.57 4.87 3.96 3.21 2.73 2.28 1.96 1.61 1.41 1.39 1.47 1.54 1.46
2.57 2.88 2.88 2.86 2.82 3.00 3.11 3.19 3.49 3.64 3.33 3.29 2.97 2.92 2.68 2.30 2.30 2.26 2.10 2.19 2.32 2.23 2.43 2.61 2.97 2.82 3.35 3.94 4.69 5.61 6.32 5.98 4.90 4.03 3.62 3.26 2.93 2.39 1.87 1.61 1.52 1.54 1.51
2.78 3.02 2.89 3.01 2.83 2.89 2.88 2.95 3.24 3.37 3.00 3.05 3.52 3.17 2.56 2.12 2.15 2.05 2.09 2.18 2.18 2.21 2.45 2.80 3.06 3.18 3.23 3.17 3.49 4.37 5.49 6.10 5.83 5.01 4.54 4.20 3.83 3.24 2.57 2.15 1.89 1.76 1.64
2.73 2.74 2.89 2.75 2.68 2.84 2.85 2.93 3.20 3.14 2.83 3.00 3.50 3.69 3.16 2.76 2.41 1.97 2.01 2.05 2.10 2.34 2.41 2.48 2.96 3.31 3.30 3.61 3.21 3.26 4.17 5.21 5.86 5.79 5.36 4.71 4.21 3.65 3.12 2.81 2.44 2.13 1.88
2.41 2.48 2.45 2.51 2.64 2.40 2.66 2.95 3.07 3.09 3.04 2.92 3.11 3.62 3.47 3.13 2.75 2.33 2.12 2.18 2.35 2.51 2.57 2.73 2.80 3.06 3.32 3.88 3.79 3.47 3.45 3.81 4.87 5.85 5.98 5.30 4.38 3.74 3.51 3.33 3.15 2.69 2.29
2.13 2.16 2.18 2.38 2.51 2.48 2.79 2.50 2.65 2.91 3.12 2.90 2.90 2.90 2.98 3.24 3.27 2.84 2.45 2.27 2.32 2.44 2.55 2.57 2.66 2.96 3.21 3.58 3.90 3.58 3.22 3.03 3.49 4.56 5.46 5.52 4.82 3.87 3.39 3.46 3.88 3.66 3.04
2.02 1.86 2.00 2.23 2.39 2.47 2.58 2.53 2.64 2.64 2.68 2.70 2.78 2.78 2.95 3.21 3.03 2.93 2.79 2.55 2.39 2.22 2.31 2.45 2.65 2.90 3.00 3.23 3.65 3.42 3.26 2.87 2.74 3.09 3.82 4.40 4.57 4.29 3.86 3.82 4.38 4.76 4.55
2.09 1.90 1.93 2.20 2.30 2.39 2.47 2.51 2.50 2.43 2.52 2.60 2.65 2.68 2.88 2.93 2.91 2.98 2.80 2.61 2.46 2.17 2.13 2.23 2.42 2.55 2.67 2.82 2.69 2.71 2.67 2.66 2.54 2.38 2.51 2.90 3.44 3.90 4.02 4.32 4.83 5.34 5.67
2.02 2.02 1.98 2.31 2.46 2.45 2.39 2.51 2.51 2.46 2.59 2.67 2.68 2.69 2.69 2.66 2.74 2.95 2.98 2.69 2.49 2.23 2.30 2.25 2.21 2.40 2.42 2.69 2.62 2.42 2.29 2.37 2.23 2.03 1.97 2.12 2.45 2.96 3.40 3.77 4.17 4.70 5.23
1.89 2.16 2.27 2.29 2.31 2.35 2.33 2.64 2.46 2.46 2.57 2.60 2.48 2.87 2.80 2.63 2.91 3.17 3.34 3.42 3.04 2.73 2.65 2.40 2.20 2.23 2.29 2.42 2.53 2.48 2.22 2.12 1.90 1.80 1.81 1.88 1.96 2.21 2.56 2.92 3.20 3.46 3.73
1.86 2.10 2.25 2.34 2.29 2.31 2.47 2.72 2.66 2.68 2.79 2.67 2.67 2.97 2.87 2.73 2.85 3.02 3.35 3.68 3.69 3.31 3.08 2.80 2.51 2.34 2.25 2.28 2.46 2.24 2.17 2.23 1.93 1.75 1.77 1.79 1.86 1.95 2.00 2.02 2.14 2.24 2.42
2.04 2.15 2.15 2.18 2.15 2.15 2.33 2.72 2.71 2.73 2.93 2.88 2.86 2.92 2.90 2.78 2.91 2.92 3.07 3.45 3.77 3.75 3.31 2.60 2.54 2.43 2.35 2.14 2.31 2.06 2.06 2.23 1.98 1.76 1.67 1.57 1.58 1.61 1.63 1.69 1.81 1.88 1.97
2.12 2.15 2.16 2.17 2.09 1.99 2.13 2.37 2.46 2.68 2.81 2.87 2.84 2.91 2.91 3.06 3.07 2.93 3.03 3.18 3.44 3.64 3.20 2.57 2.67 2.83 2.80 2.57 2.40 2.18 2.04 1.98 1.93 1.91 1.62 1.52 1.51 1.49 1.54 1.62 1.67 1.71 1.79
2.19 2.23 2.25 2.20 2.02 2.01 2.13 2.23 2.35 2.57 2.70 2.79 2.93 3.07 2.82 2.97 3.09 3.00 3.01 3.01 3.17 3.49 3.30 3.05 2.97 3.07 3.02 2.76 2.54 2.29 1.93 1.73 1.76 2.02 1.74 1.50 1.43 1.47 1.51 1.54 1.51 1.50 1.48
2.26 2.34 2.34 2.25 2.18 2.22 2.30 2.36 2.45 2.60 2.67 2.72 2.86 2.86 2.80 2.96 2.82 2.91 3.02 2.96 2.97 3.01 3.16 3.03 2.83 2.92 2.86 2.70 2.55 2.25 1.99 1.95 1.68 1.73 1.70 1.54 1.46 1.45 1.47 1.43 1.39 1.37 1.37
2.19 2.18 2.13 2.22 2.29 2.33 2.37 2.40 2.39 2.41 2.45 2.52 2.51 2.42 2.36 2.41 2.46 2.69 2.69 2.69 2.79 2.88 2.97 2.86 2.76 2.81 2.83 2.87 2.73 2.40 2.25 2.10 1.86 1.56 1.61 1.62 1.58 1.51 1.47 1.41 1.33 1.33 1.38
1.94 2.11 2.13 2.23 2.31 2.26 2.13 2.24 2.28 2.22 2.38 2.30 2.15 2.10 2.10 2.20 2.25 2.34 2.21 2.33 2.56 2.63 2.69 2.75 2.78 2.93 2.92 3.06 2.92 2.61 2.48 2.37 2.07 1.79 1.75 1.64 1.63 1.57 1.60 1.62 1.55 1.44 1.37
2.04 2.10 2.12 2.24 2.30 2.12 2.19 2.25 2.30 2.29 2.32 2.23 2.17 2.10 1.97 2.00 2.02 2.04 2.02 2.06 2.24 2.38 2.55 2.72 2.74 2.83 2.89 2.91 2.94 2.79 2.67 2.47 2.16 1.98 2.15 2.08 1.86 1.80 1.89 1.82 1.71 1.45 1.28
2.17 2.22 2.31 2.36 2.28 2.39 2.37 2.20 2.24 2.19 2.20 2.22 2.25 2.22 1.91 1.73 1.93 1.90 2.03 1.98 1.92 1.99 2.11 2.27 2.35 2.46 2.71 2.86 3.00 2.91 2.93 2.77 2.42 2.14 2.11 1.91 1.77 1.77 1.91 2.01 1.76 1.35 1.26
2.37 2.42 2.44 2.35 2.31 2.41 2.42 2.09 2.03 1.95 2.00 2.08 2.12 2.17 2.18 2.08 2.10 2.16 2.20 2.13 1.99 1.94 2.05 2.02 2.01 2.22 2.61 2.96 3.05 3.00 3.09 2.93 2.55 2.16 2.06 1.92 1.72 1.67 1.51 1.54 1.58 1.31 1.13
2.54 2.59 2.64 2.62 2.49 2.53 2.42 2.04 1.92 1.80 1.90 1.96 2.01 2.01 2.04 1.95 2.03 1.96 1.92 1.88 1.84 1.77 1.77 1.78 1.77 1.89 2.20 2.61 2.84 2.89 3.00 2.96 2.67 2.30 2.10 2.03 1.77 1.71 1.58 1.45 1.43 1.45 1.25
2.68 2.72 2.61 2.48 2.36 2.37 2.35 2.01 1.81 1.69 1.80 1.89 1.98 1.95 1.94 1.84 1.83 1.72 1.61 1.62 1.56 1.59 1.71 1.72 1.67 1.65 1.76 2.09 2.47 2.46 2.55 2.72 2.48 2.19 1.84 1.80 1.72 1.72 1.70 1.48 1.33 1.32 1.29